National Weather Service United States Department of Commerce

Observations from across/near northern Michigan

Marine Observations

Michigan Hourly Observations

 

Yesterday's high, low and precipitation reports from across northern Michigan

Northern Michigan Temperatures and Precipitation

 

Observation Text Products

                        
861
SXUS83 KAPX 141708
OMRAPX

Marine Observations
National Weather Service Gaylord MI
108 PM EDT Sun Jul 14 2024

WIND DATA (KTS) WAVES WATER
SITE DATE/TIME DIR SPEED GUST (FT) TEMP(F) SITE NAME
-------------------------------------------------------------

Lake Superior/St Marys River

GRMM4 141640Z 300 9 10 Grand Marais
WFPM4 141640Z 150 8 11 Whitefish Point
PTIM4 141630Z 90 6 7 Point Iroquois
SWPM4 141630Z 70 3 5 66.19 S.W. Pier
LTRM4 141630Z 70 4 58.28 Little Rapids
RCKM4 141630Z 130 2 3 66.19 Rock Cut
WNEM4 141630Z 330 1 2 59.71 West Nebish Island

Lake Huron

DTLM4 141630Z 250 3 8 63.49 DeTour Village
KDRM 141655Z 250 4 Drummond Island
KMCD 141655Z 250 8 Mackinac Island
MACM4 141630Z 250 12 17 69.44 Mackinac City
KSLH 141655Z 250 6 Cheboygan Airport
CYGM4 141550Z 270 2 10 Cheboygan Marina
SRLM4 141600Z 230 7 Spectacle Reef Light
KPZQ 141655Z 60 4 Rogers City
PRIM4 141550Z 190 1 8 Presque Isle Light
APNM4 141650Z 220 8 10 Alpena Harbor Light
TBIM4 141630Z 160 6 8 Thunder Bay Island
KOSC 141655Z 210 11 Oscoda
TAWM4 141640Z 190 4 7 Tawas Point
GSLM4 141640Z 170 4 7 Gravelly Shoals

Lake Michigan

KISQ 141655Z 200 12 16 Manistique
PNLM4 141630Z 230 9 11 68.54 Port Inland
NABM4 141640Z 220 14 17 Naubinway
KSJX 141655Z 220 12 18 St James
KPLN 141654Z 220 6 Pellston
KMGN 141655Z 270 5 Harbor Springs
KCVX 141655Z 240 8 Charlevoix
NMIM4 141628Z 200 3 11 North Manitou Island
GTLM4 141640Z 250 13 15 Grand Traverse Light
KTVC 141653Z 210 7 Traverse City
KFKS 141655Z 230 7 Frankfort
MEEM4 141640Z 210 6 12 Manistee Harbor
BSBM4 141640Z 190 16 21 Big Sable Point
LDTM4 141630Z 220 5 11 Ludington
KLDM 141655Z 230 14 Ludington Airport


                        
757
ASUS43 KDTX 141710
RWRMI
MICHIGAN HOURLY REGIONAL WEATHER ROUNDUP
NATIONAL WEATHER SERVICE DETROIT/PONTIAC MI
100 PM EDT SUN JUL 14 2024

NOTE: "FAIR" INDICATES FEW OR NO CLOUDS BELOW 12,000 FEET WITH NO
SIGNIFICANT WEATHER AND/OR OBSTRUCTION TO VISIBILITY.

MIZ047>049-052>055-059>063-066>070-074>076-081>083-141800-
SOUTHEAST LOWER MICHIGAN

CITY SKY/WX TMP DP RH WIND PRES REMARKS
ADRIAN PTSUNNY 81 71 71 S14 30.00F TC 27
ALMA PTSUNNY 79 70 73 SW8 29.92S TC 26
ANN ARBOR PTSUNNY 83 72 69 W9 29.98F TC 28
BAD AXE PTSUNNY 79 69 71 SW10 29.91F TC 26
CARO PTSUNNY 81 70 68 SW12G18 29.93F TC 27
DETROIT CITY MOSUNNY 85 69 58 SW13 29.97F TC 29
DETROIT PTSUNNY 84 71 65 SW14G23 29.99F TC 29
FLINT MOSUNNY 83 68 60 S7 29.94F TC 28
GROSSE ILE MOSUNNY 83 65 54 S8 29.98F TC 28
HILLSDALE CLOUDY 81 70 68 S7 29.98F TC 27
HOWELL MOSUNNY 82 70 66 S8 29.96F TC 28

CITY SKY/WX TMP DP RH WIND PRES REMARKS
JACKSON MOSUNNY 82 72 71 SE9G20 29.95F TC 28
LAMBERTVILLE MOSUNNY 81 70 68 SW5 29.99F TC 27
LANSING MOSUNNY 82 72 71 S12 29.93F TC 28
LAPEER MOSUNNY 83 67 57 SW10G20 29.95F TC 28
MASON MOSUNNY 81 70 68 S5 29.94F TC 27
MONROE MOSUNNY 82 70 67 SW14G20 29.99F TC 28
MT. CLEMENS PTSUNNY 83 68 60 SW12 29.93F TC 28
PONTIAC PTSUNNY 81 67 62 SW9 29.97F TC 27
PORT HOPE N/A 79 67 66 SW7 29.90F TC 26
PORT HURON MOSUNNY 82 68 61 S9G16 29.95F TC 28
TRI CITIES PTSUNNY 82 69 64 SW12 29.93F TC 28
MIDLAND PTSUNNY 82 68 61 SW8 29.91F TC 28
TROY MOSUNNY 83 69 62 SW8 29.99F TC 28
SAGINAW HB MOSUNNY 81 70 69 SW12 29.92S TC 27
$$
MIZ043>046-050>051-056>058-064>065-071>073-077>080-141800-
SOUTHWEST LOWER MICHIGAN

CITY SKY/WX TMP DP RH WIND PRES REMARKS
BATTLE CREEK PTSUNNY 82 71 69 S15 29.95F TC 28
BENTON HARBOR CLOUDY 81 69 67 SW9 29.92R TC 27
BIG RAPIDS CLOUDY 80 69 69 S8 29.91S TC 26
COLDWATER PTSUNNY 82 75 78 S14 29.95F TC 28
FREMONT CLOUDY 77 68 75 SW8 29.93R TC 25
HOLLAND PTSUNNY 79 68 69 SW17G25 29.92F TC 26
GRAND RAPIDS PTSUNNY 83 72 69 S15G23 29.91F TC 28
IONIA MOSUNNY 84 71 66 S10 29.91F TC 29
KALAMAZOO CLOUDY 82 74 76 S12 29.94R TC 28
LUDINGTON PTSUNNY 76 68 75 SW16 29.90R TC 25
MARSHALL MOSUNNY 82 72 72 S9 29.94F TC 28
MUSKEGON CLOUDY 75 68 78 SW8 29.93R TC 24
SOUTH HAVEN CLOUDY 83 70 63 NW5 29.94R TC 29
$$
MIZ016>042-141800-
NORTHERN LOWER MICHIGAN

CITY SKY/WX TMP DP RH WIND PRES REMARKS
ALPENA PTSUNNY 82 68 62 VRB7 29.87F TC 28
BEAVER ISLAND MOSUNNY 75 68 77 SW14G21 29.88R TC 24
BELLAIRE PTSUNNY 80 66 61 W5 29.88S TC 27
CADILLAC PTSUNNY 79 68 69 SW12 29.91S TC 26
CHARLEVOIX MOSUNNY 80 67 62 SW9 29.88S TC 27
CHEBOYGAN PTSUNNY 79 68 69 W7 29.86S TC 26
FRANKFORT MOSUNNY 80 67 65 SW8 29.89R TC 27
GAYLORD PTSUNNY 80 66 62 SW9 29.90F TC 27
GRAYLING PTSUNNY 79 68 69 W9 29.88F TC 26
HARBOR SPRINGS MOSUNNY 80 67 63 W6 29.87S TC 27
MANISTEE MOSUNNY 81 73 76 S7 29.88S TC 27
OSCODA MOSUNNY 81 67 63 SW13 29.88F TC 27
PELLSTON PTSUNNY 79 68 69 SW7 29.87S TC 26
ROGERS CITY CLOUDY 75 68 78 NE5 29.88R TC 24
TRAVERSE CITY PTSUNNY 82 69 64 SW8 29.86S TC 28
$$
MIZ007>008-015-141800-
EASTERN UPPER MICHIGAN

CITY SKY/WX TMP DP RH WIND PRES REMARKS
KINROSS CLOUDY 73 68 84 SW6 29.87R TC 23
MACKINAC ISLAN CLOUDY 72 70 95 W9 29.87F TC 22
NEWBERRY MOSUNNY 83 65 55 SW5 29.84S TC 28
S. S. MARIE CLOUDY 75 69 81 VRB3 29.85R TC 24
$$
MIZ004>006-011>014-085-141800-
CENTRAL UPPER MICHIGAN

CITY SKY/WX TMP DP RH WIND PRES REMARKS
MANISTIQUE MOSUNNY 73 69 88 S14 29.86S TC 23
ESCANABA MOSUNNY 75 70 84 S10 29.85F TC 24
MENOMINEE SUNNY 81 70 69 VRB5 29.87S TC 27
SAWYER-GWINN MOSUNNY 84 66 54 NW7 29.85S TC 29
MUNISING N/A 75 67 76 NE7 29.84R TC 24
$$
MIZ001>003-009>011-084-141800-
WESTERN UPPER MICHIGAN

CITY SKY/WX TMP DP RH WIND PRES REMARKS
IRON MOUNTAIN SUNNY 86 65 49 W12 29.86S TC 30
HOUGHTON SUNNY 80 69 69 NW13 29.84R TC 27
COPPER HARBOR N/A 73 68 84 N12 29.80S TC 23
IRONWOOD MOSUNNY 80 69 69 W9 29.87F TC 27
$$

ABBREVIATIONS USED IN REMARKS
TC - TEMPERATURE IN CELSIUS
WCI - WIND CHILL INDEX
HX - HEAT INDEX
VSB - VISIBILITY




                        
524
ASUS63 KAPX 141406
RTPAPX


Eastern Upper/Northern Lower Michigan Temperature and Precip Summary
National Weather Service Gaylord MI
1006 AM EDT Sun Jul 14 2024

Yesterday`s High Temperature...12 hour Low ending 8 am EDT
24 hour Precipitation/Snowfall ending 8 am EDT
Snow Depth observed at 8 am EDT

.BR APX 0714 ES DH00/TAIRZX/DH07/TAIRZP/PPDRZZ/SFDRZZ/SDIRZZ
:..................................................................
: MAX MIN 24 HR 24 HR SNOW
:ID LOCATION TEMP TEMP PRECIP SNOW DEPTH
:..................................................................
ANJ : Sault Ste Marie : 87 / 64 / 0.00 / 0.0 / 0
APN : Alpena : 88 / 65 / 0.19 / 0.0 / 0
HTL : Houghton Lake : 86 / 66 / 0.01 / 0.0 / 0
PLN : Pellston : 87 / 62 / 0.24 / /
TVC : Traverse City : 91 / 71 / 0.00 / /
GLR : Gaylord : 87 / 69 / 0.43 / /
.END

Cooperative Observations
Temperature/Precipitation/Snowfall values are for 24 hour period
ending at observation time. Snow Depth at obs time.

...................................................................
OBS MAX MIN SNOW SNOW
ID LOCATION TIME TEMP TEMP PCPN FALL DEPTH
...................................................................
BEUM4: Beulah 7SSW :DH0800/ 85 / 62 / 0.00 / M / M
CHRM4: Charlevoix :DH0800/ 82 / 68 / 0.05 / 0.0 / 0.0
DTVM4: Detour Village :DH0738/ 86 / 62 / M / M / 0.0
EJNM4: East Jordan 2NW :DH0830/ 87 / 65 / 0.06 / 0.0 / 0.0
FLAM4: Fife Lake 2WSW :DH0700/ 87 / 57 / 0.00 / 0.0 / 0.0
APXM4: Gaylord 9SSW (NWS) :DH0800/ M / M / 0.23 / 0.0 / 0.0
GLNM4: Glennie 2SE :DH0730/ 86 / 58 / 0.59 / 0.0 / 0.0
LUPM4: Lupton 1S :DH0800/ 86 / 58 / 0.52 / 0.0 / 0.0
OMSM4: Old Mission 3SSW :DH0855/ 88 / 59 / M / M / M
PETM4: Petoskey :DH0800/ 78 / 67 / 0.05 / 0.0 / M
SSMM4: Sault Ste Marie :DH0730/ 86 / 61 / T / 0.0 / 0.0
STAM4: Standish 4NE :DH0800/ 84 / 67 / 0.00 / M / M
TCEM4: Traverse City 4.7ESE :DH0700/ 85 / 62 / 0.00 / 0.0 / 0.0
WBRM4: West Branch 3SE :DH0800/ 86 / 64 / 0.05 / 0.0 / 0.0

These data are preliminary and have not undergone final quality
control by the National Centers for Environmental Information.
Therefore...these data are subject to revision. Final
and certified climate data can be accessed at www.ncdc.noaa.gov.

&&

The following are supplemental temperature and precipitation data.
This includes data which are received from non-National Weather
Service maintained observing systems...as well as reports from
public weather spotters. Data is only partially quality controlled
and is not suitable for official climatological records.

.BR APX 0714 ES DH00/TAIRZX/DH07/TAIRZP
:
:Automated Temperature Data--Yesterday High/12 hr Low ending 8 am EDT
:..................................................................
: MAX MIN
:ID LOCATION TEMP TEMP
:..................................................................
:
ERY : Newberry : 86 / 66
CIU : Kinross : 85 / 65
MCD : Mackinac Island : 80 / 67
DRM : Drummond Island : 84 / 64
SJX : Beaver Island : 81 / 64
SLH : Cheboygan : 88 / 63
PZQ : Rogers City : 85 / 67
MGN : Harbor Springs : 85 / 67
CVX : Charlevoix : 85 / 69
BFA : Boyne Falls : 88 / 66
ACB : Bellaire : 88 / 65
FKS : Frankfort : 82 / 70
MBL : Manistee : 83 / 67
CAD : Cadillac : 84 / 68
Y31 : West Branch : 88 / 64
OSC : Oscoda : 87 / 68
LDM : Ludington : 82 / 69
RQB : Big Rapids : 85 / 69
MOP : Mount Pleasant : 84 / 68
IKW : Midland : 90 / 68
.END

U.S. Forest Service Remote Automated Weather Stations (RAWS)
Data is only partially quality controlled
Yesterday`s High/12 hour Low Temperature ending 8 am EDT
Maximum Relative Humidity over past 12 hours
12/24 hour Precipitation ending 8 am EDT
...................................................................
MAX MIN MAX 12 HR 24 HR
ID LOCATION TEMP TEMP RH PRECIP PRECIP
...................................................................
AGRM4: Alger RAWS : 89 / 63 / 100 / 0.02 / 0.02
ATAM4: Atlanta RAWS : 88 / 60 / 96 / 0.09 / 0.09
BCYM4: Barton City RAWS : 87 / 64 / 97 / 0.10 / 0.10
GYGM4: Grayling RAWS : 88 / 64 / 98 / 0.06 / 0.06
INDM4: Indian River RAWS : 90 / 62 / 98 / 0.14 / 0.14
MMOM4: Mio RAWS : 87 / 62 / 96 / 0.26 / 0.26
NMIM4: N Manitou Island : 82 / 67 / 98 / 0.00 / 0.00
RACM4: Raco RAWS : 87 / 62 / 93 / 0.01 / 0.01
REXM4: Rexton RAWS : 81 / 58 / 100 / 0.07 / 0.07
RSCM4: Roscommon RAWS : 87 / 62 / 100 / 0.02 / 0.02
RYDM4: Rudyard RAWS : 86 / 62 / 97 / 0.05 / 0.05
SBDM4: The Bear RAWS : 84 / 67 / 100 / 0.00 / 0.00
SCKM4: Silver Creek RAWS : 89 / 63 / 96 / 0.49 / 0.49
WLLM4: Wellston RAWS : 87 / 67 / 97 / 0.00 / 0.00

The following are precipitation reports received by the National
Weather Service in Gaylord...valid for the time period ending
around 8 am EDT. All reports have been recorded in inches.

Spotter reports from Eastern Upper and Northern Lower Michigan:

WATER TIME SNOW
LOCATION RAIN SNOW EQUIV PERIOD DEPTH

Higgins Lake 3S 0.11
Au Gres 6N 0.07
Luzerne 2NE 0.06


CoCoRaHS Precipitation Reports
Values are for the previous 24 hours ending around 8 am EDT.
All reports have been recorded in inches.

SNOW SNOW WATER
STATION LOCATION PCPN FALL DEPTH EQUIV

MIIC03 : EAST TAWAS 0.8 WSW * : 0.43 / 0.0 / 0.0 / 0.00
MIEM13 : HARBOR SPRINGS 4.8 NW * : 0.35 / MM / MM / MM
MIAP01 : ALPENA 1.6 SSW * : 0.30 / 0.0 / MM / MM
MIAT06 : MANCELONA 0.5 ESE * : 0.29 / MM / MM / MM
MIIC10 : SOUTH BRANCH 2.9 ENE * : 0.25 / MM / MM / MM
MICP07 : DRUMMOND 2.9 NE * : 0.23 / MM / MM / MM
MIAC03 : GREENBUSH 2.5 S * : 0.13 / MM / MM / MM
MICX04 : CHARLEVOIX 4.3 SSE * : 0.13 / MM / MM / MM
MIPI04 : MILLERSBURG 2.3 NNW * : 0.11 / MM / MM / MM
MIAR03 : TAWAS CITY 9.3 SSW * : 0.10 / MM / MM / MM
MICF09 : GRAYLING 15.8 NE * : 0.09 / 0.0 / 0.0 / MM
MIPI01 : ROGERS CITY 0.2 WSW * : 0.09 / MM / MM / MM
MICP11 : SAULT STE. MARIE 7.8 SE * : 0.08 / MM / MM / MM
MIOD04 : MIO 6.2 NNE * : 0.08 / MM / MM / MM
MIAT12 : BELLAIRE 1.8 SW * : 0.07 / MM / MM / MM
MICX07 : EAST JORDAN 2.1 NNW * : 0.06 / 0.0 / 0.0 / 0.00
MICB07 : MACKINAW CITY 1.1 ENE * : 0.06 / MM / MM / MM
MILL08 : SUTTONS BAY 1.7 N * : 0.06 / MM / MM / MM
MIOD03 : LUZERNE 2.4 NE * : 0.06 / MM / MM / MM
MIAT10 : CENTRAL LAKE 2.1 NNE * : 0.04 / MM / MM / MM
MIMC03 : CEDARVILLE 3.2 ESE * : 0.04 / MM / MM / MM
MIMC05 : ST. IGNACE 0.6 WSW * : 0.04 / MM / MM / MM
MIAT14 : ELK RAPIDS 0.6 NW * : 0.02 / MM / MM / MM
MICX09 : ELLSWORTH 3.4 SSE * : 0.02 / MM / MM / MM
MIEM05 : HARBOR SPRINGS 0.7 ENE * : 0.02 / MM / MM / MM
MICP14 : SAULT STE. MARIE 2.2 E * : T / 0.0 / 0.0 / MM
MIRS03 : HOUGHTON LAKE 0.7 SSE * : T / MM / MM / MM
MIGT25 : TRAVERSE CITY 4.7 ESE * : 0.00 / 0.0 / 0.0 / MM
MIBZ01 : BENZONIA 5.3 S * : 0.00 / 0.0 / MM / MM
MIGT21 : KINGSLEY 2.7 ENE * : 0.00 / 0.0 / MM / MM
MIGT28 : GRAWN 1.3 SSW * : 0.00 / 0.0 / MM / MM
MIOG06 : WEST BRANCH 2.1 SSW * : 0.00 / 0.0 / MM / MM

$$